[[{"header":{"parameterUnit":"m.s-1","parameterCategory":1,"la1":30.2992,"la2":30.254,"lo1":-89.0895,"lo2":-89.0443,"dy":0.0025,"dx":0.0025,"nx":19,"ny":19,"refTime":"2026-05-13T21:00:00:Z","depth":0,"parameterNumber":2,"parameterNumberName":"U-component_of_WINDS"},"data":[0,0,0,-5.3769,-5.3772,-5.3898,-5.3898,-5.4096,-5.4098,0,0,0,0,0,0,0,0,0,0,0,-5.3755,-5.3758,-5.3768,-5.3772,-5.3898,-5.3898,-5.4096,-5.4098,0,0,0,0,0,0,0,0,0,0,0,-5.3754,-5.3757,-5.376,-5.3773,-5.3898,-5.3898,-5.4095,-5.3987,0,0,0,0,0,0,0,0,0,0,-5.3858,-5.387,-5.3756,-5.376,-5.3774,-5.3898,-5.3898,-5.3981,-5.3994,-5.4056,0,-5.4119,0,-5.4112,-5.4114,-5.4115,0,0,0,-5.3754,-5.386,-5.3872,-5.376,-5.3775,-5.3898,-5.3836,-5.3988,-5.4002,-5.4073,-5.4121,-5.4127,-5.4115,-5.4116,-5.4117,-5.4538,-5.4541,0,0,-5.3747,-5.3791,-5.3862,-5.3882,-5.3867,-5.3832,-5.384,-5.3996,-5.4051,-5.4122,-5.4131,-5.4119,-5.4117,-5.4119,-5.4536,-5.4539,0,0,0,-5.3739,-5.3787,-5.3794,-5.3875,-5.3895,-5.3836,-5.3845,-5.4044,-5.4043,-5.4133,-5.4121,-5.4119,-5.4122,-5.4533,-5.4537,-5.4718,0,0,0,-5.3734,-5.3782,-5.3792,-5.382,-5.3893,-5.3972,-5.3891,-5.4032,-5.4048,-5.412,-5.4119,-5.4124,-5.4529,-5.4535,-5.4706,-5.4795,0,0,0,-5.3739,-5.3782,-5.3809,-5.3822,-5.3878,-5.3968,-5.3975,-5.4034,-5.4042,-5.4115,-5.4125,-5.4527,-5.4534,-5.4695,-5.4777,-5.4917,0,0,0,-5.3756,-5.3969,-5.3813,-5.4045,-5.3878,-5.408,-5.3973,-5.4122,-5.4207,-5.412,-5.453,-5.4536,-5.4692,-5.4767,-5.4906,-5.504,-5.51,0,0,-5.4048,-5.4005,-5.4138,-5.4003,-5.4244,-5.4057,-5.4325,-5.4361,-5.4328,-5.447,-5.4479,-5.471,-5.4776,-5.4914,-5.543,-5.5479,0,0,0,-5.4246,-5.4342,-5.4396,-5.4479,-5.4513,-5.4548,-5.4539,-5.4552,-5.467,-5.441,-5.4798,-5.4836,-5.4915,-5.4977,-5.5018,-5.5082,-5.4568,-5.4567,-5.4566,-5.472,-5.4667,-5.4882,-5.4845,-5.4927,-5.4916,-5.4976,-5.4992,-5.4914,-5.5007,-5.5047,-5.5367,-5.5442,-5.5472,-5.5539,-5.5116,-5.5117,-5.5118,-5.5118,-5.514,-5.5266,-5.5159,-5.5329,-5.5272,-5.5414,-5.5411,-5.5352,-5.5474,-5.5333,-5.5399,-5.5246,-5.5527,-5.5583,-5.5131,-5.5129,-5.5128,-5.5126,-5.5125,-5.5442,-5.5493,-5.5507,-5.5621,-5.5715,-5.5669,-5.5792,-5.5736,-5.5683,-5.575,-5.5785,-5.5782,-5.5769,-5.5771,-5.5773,-5.5774,-5.5775,-5.5775,-5.5776,-5.5748,-5.5758,-5.5869,-5.5923,-5.5968,-5.6021,-5.6012,-5.6055,-5.6087,-5.6036,-5.6036,-5.5948,-5.5566,-5.5469,-5.5793,-5.579,-5.5788,-5.5786,-5.5785,-5.6188,-5.608,-5.6252,-5.6298,-5.6355,-5.6451,-5.6379,-5.6471,-5.6498,-5.656,-5.6458,-5.6186,-5.6138,-5.6104,-5.6023,-5.6471,-5.6471,-5.6471,-5.6471,-5.644,-5.6411,-5.6573,-5.6649,-5.6718,-5.667,-5.6864,-5.6859,-5.6837,-5.685,-5.6778,-5.6668,-5.6637,-5.6606,-5.6562,-5.6485,-5.704,-5.7041,-5.7041,-5.6707,-5.6681,-5.6857,-5.6835,-5.6876,-5.6913,-5.7092,-5.7183,-5.7136,-5.7063,-5.6859,-5.6835,-5.6655,-5.6601,-5.652,-5.6453,-5.6311,0,0]},{"header":{"parameterUnit":"m.s-1","parameterCategory":1,"la1":30.2992,"la2":30.254,"lo1":-89.0895,"lo2":-89.0443,"dy":0.0025,"dx":0.0025,"nx":19,"ny":19,"refTime":"2026-05-13T21:00:00:Z","depth":0,"parameterNumber":3,"parameterNumberName":"V-component_of_WINDS"},"data":[0,0,0,1.942,1.9419,1.9389,1.9389,1.9377,1.9377,0,0,0,0,0,0,0,0,0,0,0,1.9445,1.9446,1.942,1.9419,1.9389,1.9389,1.9377,1.9377,0,0,0,0,0,0,0,0,0,0,0,1.9445,1.9446,1.9446,1.9419,1.9389,1.9388,1.9377,1.939,0,0,0,0,0,0,0,0,0,0,1.9415,1.9455,1.9446,1.9446,1.9419,1.9389,1.9388,1.939,1.9389,1.9403,0,1.9419,0,1.9398,1.9378,1.9378,0,0,0,1.9407,1.9456,1.9433,1.9447,1.9419,1.9389,1.9399,1.939,1.9389,1.9402,1.9419,1.9418,1.9398,1.9378,1.9378,1.9499,1.95,0,0,1.9409,1.9449,1.9434,1.9433,1.944,1.94,1.9398,1.9388,1.941,1.9419,1.9417,1.9398,1.9378,1.9379,1.9498,1.9499,0,0,0,1.9422,1.9451,1.9427,1.9434,1.9427,1.94,1.9397,1.941,1.9399,1.9416,1.9398,1.9379,1.9379,1.9497,1.9498,1.9595,0,0,0,1.9422,1.9458,1.9428,1.9453,1.9428,1.9418,1.942,1.94,1.9397,1.9398,1.9379,1.9379,1.9495,1.9498,1.959,1.9634,0,0,0,1.9442,1.946,1.9462,1.9455,1.9443,1.9417,1.9405,1.9398,1.9387,1.9378,1.9379,1.9494,1.9497,1.9585,1.9626,1.9678,0,0,0,1.9474,1.9547,1.9464,1.9538,1.9444,1.9477,1.9405,1.9427,1.9432,1.9379,1.9495,1.9498,1.9583,1.9621,1.9673,1.973,1.9757,0,0,1.9589,1.9562,1.9603,1.9528,1.9587,1.9479,1.9552,1.9517,1.9479,1.9495,1.9497,1.9591,1.9625,1.9677,1.9896,1.9918,0,0,0,1.9653,1.9683,1.969,1.9696,1.9673,1.9656,1.9606,1.9594,1.9605,1.9495,1.9623,1.9642,1.9671,1.9696,1.9715,1.9737,1.9511,1.9511,1.9511,1.9873,1.9821,1.9886,1.9831,1.9839,1.9788,1.9789,1.9764,1.9708,1.974,1.9744,1.9883,1.9914,1.9928,1.9952,1.9769,1.977,1.977,1.977,2.0036,2.0071,1.9998,2.0034,1.998,2.0009,1.9964,1.9924,1.9944,1.9875,1.9898,1.9827,1.9953,1.9972,1.9777,1.9776,1.9775,1.9774,1.9774,2.0175,2.0182,2.0167,2.0172,2.0182,2.0124,2.0148,2.0097,2.0049,2.0072,2.0071,2.007,2.0062,2.0075,2.0076,2.0076,2.0077,2.0077,2.0077,2.0325,2.0304,2.033,2.0312,2.0311,2.0302,2.0253,2.025,2.0234,2.0195,2.0195,2.0138,1.9975,1.9936,2.0085,2.0083,2.0082,2.0082,2.0081,2.051,2.046,2.0501,2.05,2.0475,2.049,2.0425,2.0424,2.0414,2.0428,2.0366,2.0254,2.0223,2.0208,2.0175,2.0377,2.0377,2.0377,2.0377,2.0627,2.0607,2.0637,2.0639,2.0635,2.0581,2.0629,2.0593,2.0547,2.0538,2.0502,2.0454,2.044,2.0417,2.0397,2.0366,2.0611,2.0612,2.0612,2.0739,2.0716,2.0767,2.0722,2.07,2.0682,2.0726,2.0732,2.0669,2.062,2.053,2.0521,2.0442,2.0419,2.0368,2.0338,2.0279,0,0]}]]